TimePDT,TemperatureF,Dew PointF,Humidity,Sea Level PressureIn,VisibilityMPH,Wind Direction,Wind SpeedMPH,Gust SpeedMPH,PrecipitationIn,Events,Conditions,WindDirDegrees,DateUTC
12:15 AM,50.0,32.0,50,30.24,10.0,Calm,Calm,-,N/A,,Clear,0,2013-08-11 07:15:00
12:35 AM,51.8,32.0,47,30.24,10.0,Calm,Calm,-,N/A,,Clear,0,2013-08-11 07:35:00
12:55 AM,50.0,32.0,50,30.24,10.0,Calm,Calm,-,N/A,,Clear,0,2013-08-11 07:55:00
1:15 AM,50.0,32.0,50,30.24,10.0,South,3.5,-,N/A,,Clear,170,2013-08-11 08:15:00
1:35 AM,48.2,32.0,54,30.24,10.0,South,3.5,-,N/A,,Clear,170,2013-08-11 08:35:00
1:55 AM,44.6,30.2,57,30.25,10.0,Calm,Calm,-,N/A,,Clear,0,2013-08-11 08:55:00
2:15 AM,42.8,30.2,61,30.24,10.0,Calm,Calm,-,N/A,,Clear,0,2013-08-11 09:15:00
2:35 AM,42.8,30.2,61,30.25,10.0,Calm,Calm,-,N/A,,Clear,0,2013-08-11 09:35:00
2:55 AM,41.0,30.2,65,30.25,10.0,Calm,Calm,-,N/A,,Clear,0,2013-08-11 09:55:00
3:15 AM,42.8,30.2,61,30.25,10.0,North,4.6,-,N/A,,Clear,360,2013-08-11 10:15:00
3:35 AM,41.0,30.2,65,30.25,10.0,Calm,Calm,-,N/A,,Clear,0,2013-08-11 10:35:00
3:55 AM,44.6,30.2,57,30.24,10.0,Calm,Calm,-,N/A,,Clear,0,2013-08-11 10:55:00
4:15 AM,39.2,28.4,65,30.25,10.0,Calm,Calm,-,N/A,,Clear,0,2013-08-11 11:15:00
4:35 AM,42.8,30.2,61,30.25,10.0,Calm,Calm,-,N/A,,Clear,0,2013-08-11 11:35:00
4:55 AM,39.2,26.6,61,30.25,10.0,Calm,Calm,-,N/A,,Clear,0,2013-08-11 11:55:00
5:15 AM,39.2,28.4,65,30.25,10.0,North,5.8,-,N/A,,Clear,360,2013-08-11 12:15:00
5:35 AM,39.2,28.4,65,30.25,10.0,NNW,4.6,-,N/A,,Clear,330,2013-08-11 12:35:00
5:55 AM,41.0,28.4,61,30.25,10.0,NNW,3.5,-,N/A,,Clear,330,2013-08-11 12:55:00
6:15 AM,39.2,28.4,65,30.26,10.0,West,3.5,-,N/A,,Clear,280,2013-08-11 13:15:00
6:35 AM,41.0,28.4,61,30.26,10.0,NNW,9.2,-,N/A,,Clear,340,2013-08-11 13:35:00
6:55 AM,39.2,26.6,61,30.26,10.0,North,4.6,-,N/A,,Clear,360,2013-08-11 13:55:00
7:15 AM,44.6,28.4,53,30.27,10.0,Calm,Calm,-,N/A,,Clear,0,2013-08-11 14:15:00
7:35 AM,46.4,28.4,50,30.27,10.0,Calm,Calm,-,N/A,,Clear,0,2013-08-11 14:35:00
7:55 AM,51.8,30.2,44,30.27,10.0,Calm,Calm,-,N/A,,Clear,0,2013-08-11 14:55:00
8:15 AM,55.4,28.4,36,30.27,10.0,Calm,Calm,-,N/A,,Clear,0,2013-08-11 15:15:00
8:35 AM,59.0,32.0,36,30.27,10.0,SE,5.8,-,N/A,,Clear,130,2013-08-11 15:35:00
8:55 AM,59.0,32.0,36,30.27,10.0,SE,4.6,-,N/A,,Clear,130,2013-08-11 15:55:00
9:15 AM,60.8,32.0,34,30.26,10.0,SE,3.5,-,N/A,,Clear,140,2013-08-11 16:15:00
9:35 AM,64.4,32.0,30,30.26,10.0,Calm,Calm,-,N/A,,Clear,0,2013-08-11 16:35:00
9:55 AM,66.2,32.0,28,30.25,10.0,Calm,Calm,-,N/A,,Clear,0,2013-08-11 16:55:00
10:15 AM,68.0,30.2,24,30.25,10.0,SE,3.5,-,N/A,,Clear,130,2013-08-11 17:15:00
10:35 AM,69.8,32.0,25,30.25,10.0,East,6.9,-,N/A,,Clear,90,2013-08-11 17:35:00
10:55 AM,71.6,30.2,22,30.24,10.0,SE,6.9,-,N/A,,Clear,130,2013-08-11 17:55:00
11:15 AM,71.6,30.2,22,30.24,10.0,East,6.9,-,N/A,,Clear,90,2013-08-11 18:15:00
11:55 AM,73.4,28.4,19,30.23,10.0,ESE,10.4,-,N/A,,Clear,120,2013-08-11 18:55:00
12:15 PM,73.4,28.4,19,30.22,10.0,ESE,10.4,-,N/A,,Clear,120,2013-08-11 19:15:00
12:35 PM,75.2,24.8,15,30.22,10.0,ESE,12.7,19.6,N/A,,Clear,110,2013-08-11 19:35:00
12:55 PM,75.2,24.8,15,30.22,10.0,ESE,8.1,19.6,N/A,,Clear,110,2013-08-11 19:55:00
1:35 PM,77.0,24.8,14,30.21,10.0,East,13.8,19.6,N/A,,Clear,100,2013-08-11 20:35:00
1:55 PM,77.0,24.8,14,30.21,10.0,ESE,9.2,19.6,N/A,,Clear,110,2013-08-11 20:55:00
2:15 PM,78.8,24.8,14,30.21,10.0,ENE,8.1,17.3,N/A,,Clear,70,2013-08-11 21:15:00
2:35 PM,77.0,24.8,14,30.20,10.0,WNW,6.9,-,N/A,,Scattered Clouds,290,2013-08-11 21:35:00
2:55 PM,77.0,24.8,14,30.20,10.0,NNW,10.4,24.2,N/A,,Scattered Clouds,330,2013-08-11 21:55:00
3:15 PM,77.0,24.8,14,30.19,10.0,NW,13.8,29.9,N/A,,Scattered Clouds,310,2013-08-11 22:15:00
3:35 PM,77.0,24.8,14,30.19,10.0,WNW,11.5,26.5,N/A,,Scattered Clouds,300,2013-08-11 22:35:00
3:55 PM,77.0,23.0,13,30.19,10.0,NW,17.3,31.1,N/A,,Scattered Clouds,310,2013-08-11 22:55:00
4:15 PM,75.2,23.0,14,30.18,10.0,WNW,19.6,28.8,N/A,,Scattered Clouds,290,2013-08-11 23:15:00
4:35 PM,77.0,23.0,13,30.18,10.0,NW,10.4,31.1,N/A,,Scattered Clouds,310,2013-08-11 23:35:00
4:55 PM,77.0,24.8,14,30.18,10.0,WNW,18.4,38.0,N/A,,Mostly Cloudy,290,2013-08-11 23:55:00
5:15 PM,77.0,24.8,14,30.17,10.0,West,24.2,32.2,N/A,,Scattered Clouds,270,2013-08-12 00:15:00
5:35 PM,75.2,24.8,15,30.17,10.0,West,18.4,26.5,N/A,,Mostly Cloudy,270,2013-08-12 00:35:00
5:55 PM,77.0,26.6,16,30.17,10.0,West,13.8,20.7,N/A,,Mostly Cloudy,280,2013-08-12 00:55:00
6:15 PM,75.2,24.8,15,30.16,10.0,WSW,9.2,18.4,N/A,,Scattered Clouds,240,2013-08-12 01:15:00
6:35 PM,73.4,26.6,18,30.16,10.0,WSW,13.8,17.3,N/A,,Clear,240,2013-08-12 01:35:00
6:55 PM,71.6,28.4,20,30.17,10.0,SSW,15.0,28.8,N/A,,Clear,210,2013-08-12 01:55:00
7:15 PM,71.6,28.4,20,30.17,10.0,West,4.6,-,N/A,,Clear,270,2013-08-12 02:15:00
7:35 PM,68.0,28.4,23,30.18,10.0,West,9.2,16.1,N/A,,Clear,270,2013-08-12 02:35:00
7:55 PM,66.2,30.2,26,30.18,10.0,SW,5.8,-,N/A,,Clear,230,2013-08-12 02:55:00
8:15 PM,64.4,30.2,28,30.19,10.0,North,4.6,-,N/A,,Clear,10,2013-08-12 03:15:00
8:35 PM,62.6,30.2,30,30.20,10.0,Calm,Calm,-,N/A,,Clear,0,2013-08-12 03:35:00
8:55 PM,60.8,30.2,31,30.20,10.0,Calm,Calm,-,N/A,,Clear,0,2013-08-12 03:55:00